Harlan Municipal Airport
Saturday 9:35 PM
Temperature36° (48°/19°)
Dew Point25°
Feels Like33°
Relative Humidity64
%
Visibility10
mi
Pressure1019.6
mb
Wind Direction
Wind Speed3
mph
Precipitation Today0.15"

Last 30 Observations

Time PresWx Temp DP Feels RH% Vsby Pressure Ceiling Direction Speed 1h Precip
9:15 PM 37° 25° 60
%
10
mi
1020.0
mb
Calm 0.00"
8:55 PM 37° 25° 60
%
10
mi
1019.7
mb
Calm 0.00"
8:35 PM 39° 25° 37°56
%
10
mi
1019.7
mb
ESE
110°
3
mph
0.00"
8:15 PM 41° 25° 38°52
%
10
mi
1019.3
mb
E
100°
5
mph
0.00"
7:55 PM 43° 23° 40°45
%
10
mi
1019.7
mb
E
100°
5
mph
0.00"
7:35 PM 45° 23° 42°42
%
10
mi
1019.7
mb
ESE
110°
5
mph
0.00"
7:15 PM 46° 21° 43°37
%
10
mi
1019.7
mb
ESE
110°
7
mph
0.00"
6:55 PM 46° 18° 42°31
%
10
mi
1019.7
mb
ESE
110°
9
mph
0.00"
6:35 PM 48° 18° 45°29
%
10
mi
1019.7
mb
SE
130°
7
mph
0.00"
6:15 PM 48° 19° 45°32
%
10
mi
1019.7
mb
ESE
110°
8
mph
0.00"
5:55 PM 48° 18° 46°29
%
10
mi
1019.7
mb
ESE
120°
5
mph
0.00"
5:35 PM 48° 18° 43°29
%
10
mi
1019.7
mb
SE
130°
11
mph
0.00"
5:15 PM 48° 19° 43°32
%
10
mi
1019.7
mb
SE
130°
13
mph
0.00"
4:55 PM 48° 21° 44°34
%
10
mi
1020.0
mb
SE
130°
9
mph
0.00"
4:35 PM 48° 21° 44°34
%
10
mi
1020.0
mb
ESE
120°
10
mph
0.00"
4:15 PM 46° 19° 43°34
%
10
mi
1020.3
mb
ESE
120°
7
mph
0.00"
3:55 PM 46° 23° 42°39
%
10
mi
1020.7
mb
ESE
120°
9
mph
0.00"
3:35 PM 46° 23° 42°39
%
10
mi
1021.0
mb
E
90°
9
mph
0.00"
3:15 PM 45° 23° 39°42
%
10
mi
1021.0
mb
E
90°
10
mph
0.00"
2:55 PM 45° 23° 40°42
%
10
mi
1021.3
mb
ESE
120°
9
mph
0.00"
2:35 PM 43° 23° 36°45
%
10
mi
1021.7
mb
ESE
110°
14
mph
0.00"
2:15 PM 43° 21° 36°42
%
10
mi
1022.4
mb
E
90°
13
mph
0.00"
1:55 PM 43° 23° 37°45
%
10
mi
1022.7
mb
E
80°
10
mph
Trace
1:35 PM 41° 25° 35°52
%
10
mi
1023.0
mb
11,000
ft
ENE
70°
10
mph
0.00"
1:15 PM 39° 25° 34°56
%
10
mi
1023.4
mb
11,000
ft
NE
50°
8
mph
0.00"
12:55 PM 37° 25° 31°60
%
10
mi
1023.7
mb
11,000
ft
ENE
70°
8
mph
Trace
12:35 PM 36° 23° 29°60
%
10
mi
1024.1
mb
11,000
ft
ENE
60°
9
mph
0.00"
12:15 PM 34° 21° 26°60
%
10
mi
1024.4
mb
11,000
ft
NE
50°
9
mph
0.00"
11:55 AM 34° 23° 28°64
%
10
mi
1024.4
mb
11,000
ft
ENE
70°
7
mph
Trace
11:35 AM 32° 23° 27°69
%
10
mi
1024.4
mb
12,000
ft
Variable 5
mph
0.00"